Time,TemperatureF,DewpointF,PressureIn,WindDirection,WindDirectionDegrees,WindSpeedMPH,WindSpeedGustMPH,Humidity,HourlyPrecipIn,Conditions,Clouds,dailyrainin,SolarRadiationWatts/m^2,SoftwareType,DateUTC
2013-01-07 00:08:00,41.2,39.1,29.92,ESE,102,3.0,7.0,92,0.00,,,0.00,0,Wunderground v.1.15,2013-01-07 08:08:00,
2013-01-07 00:18:00,41.3,39.2,29.91,ESE,113,5.0,5.0,92,0.00,,,0.00,0,Wunderground v.1.15,2013-01-07 08:18:00,
2013-01-07 00:28:00,41.3,39.2,29.91,ESE,110,5.0,5.0,92,0.00,,,0.00,0,Wunderground v.1.15,2013-01-07 08:28:00,
2013-01-07 00:38:00,41.3,39.2,29.91,ESE,109,4.0,4.0,92,0.00,,,0.00,0,Wunderground v.1.15,2013-01-07 08:38:00,
2013-01-07 00:52:00,41.3,39.2,29.91,ESE,113,4.0,7.0,92,0.00,,,0.00,0,Wunderground v.1.15,2013-01-07 08:52:00,
2013-01-07 00:58:00,41.3,39.2,29.91,ESE,112,4.0,7.0,92,0.00,,,0.00,0,Wunderground v.1.15,2013-01-07 08:58:00,
2013-01-07 01:08:00,41.5,39.3,29.90,ESE,113,5.0,5.0,92,0.00,,,0.00,0,Wunderground v.1.15,2013-01-07 09:08:00,
2013-01-07 01:18:00,41.6,39.4,29.89,ESE,116,4.0,5.0,92,0.00,,,0.00,0,Wunderground v.1.15,2013-01-07 09:18:00,
2013-01-07 01:27:00,41.6,39.4,29.89,SE,138,5.0,6.0,92,0.00,,,0.00,0,Wunderground v.1.15,2013-01-07 09:27:00,
2013-01-07 01:37:00,41.8,39.9,29.89,ESE,112,3.0,4.0,93,0.11,,,0.02,0,Wunderground v.1.15,2013-01-07 09:37:00,
2013-01-07 01:47:00,41.9,40.0,29.90,ESE,119,4.0,4.0,93,0.05,,,0.03,0,Wunderground v.1.15,2013-01-07 09:47:00,
2013-01-07 01:57:00,42.1,40.2,29.90,ESE,113,4.0,5.0,93,0.06,,,0.04,0,Wunderground v.1.15,2013-01-07 09:57:00,
2013-01-07 02:07:00,42.1,39.9,29.89,ESE,114,4.0,6.0,92,0.00,,,0.04,0,Wunderground v.1.15,2013-01-07 10:07:00,
2013-01-07 02:17:00,42.1,40.2,29.88,ESE,112,5.0,6.0,93,0.00,,,0.04,0,Wunderground v.1.15,2013-01-07 10:17:00,
2013-01-07 02:27:00,42.1,40.2,29.88,ESE,109,4.0,6.0,93,0.00,,,0.04,0,Wunderground v.1.15,2013-01-07 10:27:00,
2013-01-07 02:37:00,42.1,40.2,29.87,ESE,109,5.0,5.0,93,0.00,,,0.04,0,Wunderground v.1.15,2013-01-07 10:37:00,
2013-01-07 02:48:00,42.1,40.2,29.86,ESE,114,5.0,5.0,93,0.00,,,0.04,0,Wunderground v.1.15,2013-01-07 10:48:00,
2013-01-07 03:02:00,42.2,40.3,29.86,ESE,120,5.0,6.0,93,0.00,,,0.04,0,Wunderground v.1.15,2013-01-07 11:02:00,
2013-01-07 03:08:00,42.2,40.3,29.86,ESE,103,5.0,6.0,93,0.00,,,0.04,0,Wunderground v.1.15,2013-01-07 11:08:00,
2013-01-07 03:18:00,42.3,40.1,29.84,ESE,114,5.0,5.0,92,0.00,,,0.04,0,Wunderground v.1.15,2013-01-07 11:18:00,
2013-01-07 03:28:00,42.3,40.1,29.84,ESE,119,5.0,8.0,92,0.00,,,0.04,0,Wunderground v.1.15,2013-01-07 11:28:00,
2013-01-07 03:38:00,42.6,40.4,29.84,ESE,114,6.0,8.0,92,0.00,,,0.04,0,Wunderground v.1.15,2013-01-07 11:38:00,
2013-01-07 03:48:00,42.9,40.2,29.83,ESE,119,6.0,6.0,90,0.00,,,0.04,0,Wunderground v.1.15,2013-01-07 11:48:00,
2013-01-07 03:58:00,43.1,40.4,29.83,ESE,119,4.0,5.0,90,0.00,,,0.04,0,Wunderground v.1.15,2013-01-07 11:58:00,
2013-01-07 04:08:00,43.3,40.3,29.82,SSE,161,5.0,5.0,89,0.00,,,0.04,0,Wunderground v.1.15,2013-01-07 12:08:00,
2013-01-07 04:18:00,43.3,40.3,29.82,ESE,102,4.0,10.0,89,0.00,,,0.04,0,Wunderground v.1.15,2013-01-07 12:18:00,
2013-01-07 04:31:00,43.5,40.5,29.81,ESE,113,4.0,6.0,89,0.00,,,0.04,0,Wunderground v.1.15,2013-01-07 12:31:00,
2013-01-07 04:37:00,43.5,40.5,29.81,SE,128,5.0,7.0,89,0.00,,,0.04,0,Wunderground v.1.15,2013-01-07 12:37:00,
2013-01-07 04:47:00,43.6,40.9,29.79,ESE,113,5.0,5.0,90,0.00,,,0.04,0,Wunderground v.1.15,2013-01-07 12:47:00,
2013-01-07 04:57:00,43.8,41.1,29.79,ESE,106,6.0,8.0,90,0.00,,,0.04,0,Wunderground v.1.15,2013-01-07 12:57:00,
2013-01-07 05:07:00,44.1,41.4,29.78,SE,136,7.0,7.0,90,0.00,,,0.04,0,Wunderground v.1.15,2013-01-07 13:07:00,
2013-01-07 05:17:00,44.1,41.6,29.77,SE,134,7.0,8.0,91,0.00,,,0.04,0,Wunderground v.1.15,2013-01-07 13:17:00,
2013-01-07 05:28:00,44.2,42.0,29.77,ESE,121,5.0,6.0,92,0.00,,,0.04,0,Wunderground v.1.15,2013-01-07 13:28:00,
2013-01-07 05:38:00,44.3,42.1,29.76,SSE,162,5.0,5.0,92,0.00,,,0.04,0,Wunderground v.1.15,2013-01-07 13:38:00,
2013-01-07 05:47:00,44.5,42.0,29.76,East,99,5.0,10.0,91,0.00,,,0.04,0,Wunderground v.1.15,2013-01-07 13:47:00,
2013-01-07 05:58:00,44.5,42.0,29.76,ESE,112,5.0,9.0,91,0.00,,,0.04,0,Wunderground v.1.15,2013-01-07 13:58:00,
2013-01-07 06:08:00,44.8,42.6,29.77,ESE,114,5.0,5.0,92,0.00,,,0.04,0,Wunderground v.1.15,2013-01-07 14:08:00,
2013-01-07 06:22:00,45.2,43.3,29.76,South,182,6.0,7.0,93,0.00,,,0.04,0,Wunderground v.1.15,2013-01-07 14:22:00,
2013-01-07 06:33:00,45.5,43.6,29.76,SSE,157,5.0,6.0,93,0.00,,,0.04,0,Wunderground v.1.15,2013-01-07 14:33:00,
2013-01-07 06:38:00,45.7,43.5,29.76,SE,138,8.0,8.0,92,0.00,,,0.04,0,Wunderground v.1.15,2013-01-07 14:38:00,
2013-01-07 06:48:00,45.8,43.6,29.76,SE,136,7.0,7.0,92,0.00,,,0.04,0,Wunderground v.1.15,2013-01-07 14:48:00,
2013-01-07 06:58:00,46.0,43.5,29.76,SSE,150,8.0,8.0,91,0.00,,,0.04,0,Wunderground v.1.15,2013-01-07 14:58:00,
2013-01-07 07:08:00,46.1,43.3,29.75,SSE,155,9.0,13.0,90,0.00,,,0.04,0,Wunderground v.1.15,2013-01-07 15:08:00,
2013-01-07 07:18:00,46.4,43.6,29.75,SSE,154,11.0,11.0,90,0.00,,,0.04,0,Wunderground v.1.15,2013-01-07 15:18:00,
2013-01-07 07:28:00,46.5,43.7,29.75,South,174,11.0,18.0,90,0.00,,,0.04,0,Wunderground v.1.15,2013-01-07 15:28:00,
2013-01-07 07:42:00,46.8,43.7,29.74,SE,137,11.0,14.0,89,0.00,,,0.04,0,Wunderground v.1.15,2013-01-07 15:42:00,
2013-01-07 07:47:00,46.8,43.7,29.73,ESE,121,11.0,16.0,89,0.00,,,0.04,0,Wunderground v.1.15,2013-01-07 15:47:00,
2013-01-07 07:57:00,47.1,44.0,29.73,SSE,148,13.0,13.0,89,0.00,,,0.04,0,Wunderground v.1.15,2013-01-07 15:57:00,
2013-01-07 08:07:00,47.3,43.9,29.74,East,90,11.0,17.0,88,0.00,,,0.04,0,Wunderground v.1.15,2013-01-07 16:07:00,
2013-01-07 08:22:00,47.6,44.2,29.74,South,179,10.0,13.0,88,0.00,,,0.04,5,Wunderground v.1.15,2013-01-07 16:22:00,
2013-01-07 08:27:00,47.7,44.0,29.74,ENE,76,10.0,13.0,87,0.00,,,0.04,5,Wunderground v.1.15,2013-01-07 16:27:00,
2013-01-07 08:38:00,48.0,44.3,29.75,ESE,119,8.0,9.0,87,0.00,,,0.04,11,Wunderground v.1.15,2013-01-07 16:38:00,
2013-01-07 08:48:00,48.2,44.5,29.76,ENE,72,9.0,11.0,87,0.00,,,0.04,12,Wunderground v.1.15,2013-01-07 16:48:00,
2013-01-07 08:58:00,48.2,44.8,29.76,East,79,9.0,11.0,88,0.00,,,0.04,16,Wunderground v.1.15,2013-01-07 16:58:00,
2013-01-07 09:08:00,48.5,45.1,29.77,SSE,152,9.0,10.0,88,0.00,,,0.04,19,Wunderground v.1.15,2013-01-07 17:08:00,
2013-01-07 09:18:00,48.6,45.2,29.78,SSE,148,8.0,15.0,88,0.00,,,0.04,21,Wunderground v.1.15,2013-01-07 17:18:00,
2013-01-07 09:28:00,48.6,45.2,29.78,SE,137,10.0,12.0,88,0.00,,,0.04,26,Wunderground v.1.15,2013-01-07 17:28:00,
2013-01-07 09:37:00,48.8,45.7,29.78,South,175,8.0,10.0,89,0.00,,,0.04,35,Wunderground v.1.15,2013-01-07 17:37:00,
2013-01-07 09:47:00,48.9,45.8,29.79,SSE,157,8.0,11.0,89,0.00,,,0.04,35,Wunderground v.1.15,2013-01-07 17:47:00,
2013-01-07 10:02:00,48.9,45.8,29.80,SE,143,8.0,8.0,89,0.00,,,0.04,35,Wunderground v.1.15,2013-01-07 18:02:00,
2013-01-07 10:07:00,49.1,46.0,29.80,ESE,119,7.0,10.0,89,0.00,,,0.04,39,Wunderground v.1.15,2013-01-07 18:07:00,
2013-01-07 10:17:00,49.2,46.1,29.81,SSE,158,7.0,8.0,89,0.00,,,0.04,33,Wunderground v.1.15,2013-01-07 18:17:00,
2013-01-07 10:27:00,49.5,46.1,29.81,SE,141,8.0,8.0,88,0.00,,,0.04,37,Wunderground v.1.15,2013-01-07 18:27:00,
2013-01-07 10:37:00,49.6,46.2,29.82,SSE,147,7.0,12.0,88,0.00,,,0.04,39,Wunderground v.1.15,2013-01-07 18:37:00,
2013-01-07 10:52:00,49.6,46.2,29.82,South,169,8.0,13.0,88,0.00,,,0.04,40,Wunderground v.1.15,2013-01-07 18:52:00,
2013-01-07 10:57:00,49.8,46.4,29.82,SE,124,10.0,13.0,88,0.00,,,0.04,42,Wunderground v.1.15,2013-01-07 18:57:00,
2013-01-07 11:08:00,49.9,46.5,29.82,SSE,150,10.0,17.0,88,0.00,,,0.04,44,Wunderground v.1.15,2013-01-07 19:08:00,
2013-01-07 11:18:00,50.1,46.4,29.83,SSE,168,10.0,10.0,87,0.00,,,0.04,46,Wunderground v.1.15,2013-01-07 19:18:00,
2013-01-07 11:28:00,50.1,46.4,29.83,South,188,9.0,17.0,87,0.00,,,0.04,58,Wunderground v.1.15,2013-01-07 19:28:00,
2013-01-07 11:38:00,50.2,46.5,29.81,ESE,120,11.0,11.0,87,0.00,,,0.04,55,Wunderground v.1.15,2013-01-07 19:38:00,
2013-01-07 11:48:00,50.4,46.7,29.82,SE,130,11.0,12.0,87,0.00,,,0.04,49,Wunderground v.1.15,2013-01-07 19:48:00,
2013-01-07 11:58:00,50.2,46.5,29.82,ESE,120,9.0,9.0,87,0.00,,,0.04,39,Wunderground v.1.15,2013-01-07 19:58:00,
2013-01-07 12:08:00,50.2,46.5,29.83,South,172,9.0,21.0,87,0.00,,,0.04,44,Wunderground v.1.15,2013-01-07 20:08:00,
2013-01-07 12:18:00,50.4,46.7,29.84,SE,144,10.0,10.0,87,0.00,,,0.04,42,Wunderground v.1.15,2013-01-07 20:18:00,
2013-01-07 12:28:00,50.5,46.5,29.84,SE,134,9.0,18.0,86,0.00,,,0.04,55,Wunderground v.1.15,2013-01-07 20:28:00,
2013-01-07 12:37:00,50.7,46.4,29.83,SE,140,10.0,13.0,85,0.00,,,0.04,55,Wunderground v.1.15,2013-01-07 20:37:00,
2013-01-07 12:47:00,50.7,46.0,29.84,SSE,154,12.0,12.0,84,0.00,,,0.04,60,Wunderground v.1.15,2013-01-07 20:47:00,
2013-01-07 12:57:00,50.7,46.0,29.84,SSE,164,12.0,25.0,84,0.00,,,0.04,62,Wunderground v.1.15,2013-01-07 20:57:00,
2013-01-07 13:07:00,50.7,46.0,29.85,SSE,147,12.0,12.0,84,0.00,,,0.04,56,Wunderground v.1.15,2013-01-07 21:07:00,
2013-01-07 13:18:00,50.7,46.0,29.86,South,169,11.0,19.0,84,0.00,,,0.04,62,Wunderground v.1.15,2013-01-07 21:18:00,
2013-01-07 13:27:00,50.7,46.0,29.86,SSE,150,11.0,11.0,84,0.00,,,0.04,62,Wunderground v.1.15,2013-01-07 21:27:00,
2013-01-07 13:38:00,50.5,45.8,29.88,SE,144,10.0,14.0,84,0.00,,,0.04,62,Wunderground v.1.15,2013-01-07 21:38:00,
2013-01-07 13:48:00,50.4,45.7,29.89,SE,141,12.0,17.0,84,0.00,,,0.04,51,Wunderground v.1.15,2013-01-07 21:48:00,
2013-01-07 14:02:00,50.2,45.6,29.89,SSE,147,11.0,11.0,84,0.00,,,0.04,44,Wunderground v.1.15,2013-01-07 22:02:00,
2013-01-07 14:08:00,50.2,45.6,29.89,SSE,150,9.0,17.0,84,0.00,,,0.04,40,Wunderground v.1.15,2013-01-07 22:08:00,
2013-01-07 14:18:00,50.1,45.5,29.91,SSE,152,11.0,15.0,84,0.00,,,0.04,33,Wunderground v.1.15,2013-01-07 22:18:00,
2013-01-07 14:28:00,50.1,45.8,29.91,SE,136,8.0,10.0,85,0.00,,,0.04,33,Wunderground v.1.15,2013-01-07 22:28:00,
2013-01-07 14:37:00,50.1,45.8,29.91,SE,143,6.0,8.0,85,0.00,,,0.04,37,Wunderground v.1.15,2013-01-07 22:37:00,
2013-01-07 14:47:00,50.1,45.5,29.91,SE,137,9.0,9.0,84,0.00,,,0.04,28,Wunderground v.1.15,2013-01-07 22:47:00,
2013-01-07 14:57:00,49.9,45.3,29.91,SE,141,9.0,11.0,84,0.00,,,0.04,37,Wunderground v.1.15,2013-01-07 22:57:00,
2013-01-07 15:07:00,49.8,44.8,29.91,SE,133,10.0,11.0,83,0.00,,,0.04,23,Wunderground v.1.15,2013-01-07 23:07:00,
2013-01-07 15:17:00,49.8,44.5,29.93,ESE,110,8.0,9.0,82,0.00,,,0.04,18,Wunderground v.1.15,2013-01-07 23:17:00,
2013-01-07 15:28:00,49.6,44.6,29.93,SE,138,5.0,12.0,83,0.00,,,0.04,14,Wunderground v.1.15,2013-01-07 23:28:00,
2013-01-07 15:38:00,49.6,44.6,29.94,SSE,158,6.0,7.0,83,0.00,,,0.04,12,Wunderground v.1.15,2013-01-07 23:38:00,
2013-01-07 15:52:00,49.5,44.6,29.94,SSE,151,5.0,5.0,83,0.00,,,0.04,9,Wunderground v.1.15,2013-01-07 23:52:00,
2013-01-07 15:58:00,49.4,44.5,29.94,SE,143,4.0,12.0,83,0.00,,,0.04,7,Wunderground v.1.15,2013-01-07 23:58:00,
2013-01-07 16:08:00,49.2,43.9,29.95,SSE,147,5.0,7.0,82,0.00,,,0.04,7,Wunderground v.1.15,2013-01-08 00:08:00,
2013-01-07 16:18:00,49.2,43.9,29.95,SE,127,5.0,6.0,82,0.00,,,0.04,7,Wunderground v.1.15,2013-01-08 00:18:00,
2013-01-07 16:28:00,49.1,44.2,29.95,SE,140,6.0,9.0,83,0.00,,,0.04,5,Wunderground v.1.15,2013-01-08 00:28:00,
2013-01-07 16:42:00,48.9,44.0,29.96,SE,140,7.0,7.0,83,0.00,,,0.04,0,Wunderground v.1.15,2013-01-08 00:42:00,
2013-01-07 16:47:00,48.9,44.3,29.96,SE,143,4.0,8.0,84,0.00,,,0.04,0,Wunderground v.1.15,2013-01-08 00:47:00,
2013-01-07 16:57:00,48.8,44.2,29.96,SE,133,4.0,7.0,84,0.00,,,0.04,0,Wunderground v.1.15,2013-01-08 00:57:00,
2013-01-07 17:07:00,48.8,44.5,29.97,SE,138,5.0,8.0,85,0.00,,,0.04,0,Wunderground v.1.15,2013-01-08 01:07:00,
2013-01-07 17:17:00,48.8,44.5,29.97,SSE,158,5.0,12.0,85,0.00,,,0.04,0,Wunderground v.1.15,2013-01-08 01:17:00,
2013-01-07 17:27:00,48.6,44.3,29.97,SSE,147,6.0,6.0,85,0.00,,,0.04,0,Wunderground v.1.15,2013-01-08 01:27:00,
2013-01-07 17:38:00,48.6,44.3,29.97,SE,144,5.0,7.0,85,0.00,,,0.04,0,Wunderground v.1.15,2013-01-08 01:38:00,
2013-01-07 17:48:00,48.6,44.3,29.98,SE,141,5.0,6.0,85,0.00,,,0.04,0,Wunderground v.1.15,2013-01-08 01:48:00,
2013-01-07 17:58:00,48.5,44.2,29.98,SSE,158,5.0,5.0,85,0.00,,,0.04,0,Wunderground v.1.15,2013-01-08 01:58:00,
2013-01-07 18:12:00,48.5,44.2,29.99,SE,127,4.0,5.0,85,0.00,,,0.04,0,Wunderground v.1.15,2013-01-08 02:12:00,
2013-01-07 18:18:00,48.3,43.7,29.99,SSE,158,4.0,5.0,84,0.00,,,0.04,0,Wunderground v.1.15,2013-01-08 02:18:00,
2013-01-07 18:28:00,48.3,43.4,29.99,SE,127,5.0,6.0,83,0.00,,,0.04,0,Wunderground v.1.15,2013-01-08 02:28:00,
2013-01-07 18:38:00,48.2,43.3,29.99,ESE,121,6.0,10.0,83,0.00,,,0.04,0,Wunderground v.1.15,2013-01-08 02:38:00,
2013-01-07 18:48:00,48.0,42.8,30.00,SSE,148,5.0,5.0,82,0.00,,,0.04,0,Wunderground v.1.15,2013-01-08 02:48:00,
2013-01-07 18:58:00,48.0,42.8,30.00,SE,134,5.0,5.0,82,0.00,,,0.04,0,Wunderground v.1.15,2013-01-08 02:58:00,
2013-01-07 19:08:00,47.9,42.3,30.01,SE,144,4.0,8.0,81,0.00,,,0.04,0,Wunderground v.1.15,2013-01-08 03:08:00,
2013-01-07 19:18:00,47.9,42.3,30.02,SSE,151,4.0,6.0,81,0.00,,,0.04,0,Wunderground v.1.15,2013-01-08 03:18:00,
2013-01-07 19:28:00,47.7,42.2,30.02,SE,133,6.0,6.0,81,0.00,,,0.04,0,Wunderground v.1.15,2013-01-08 03:28:00,
2013-01-07 19:37:00,47.6,42.1,30.01,SSE,157,5.0,5.0,81,0.00,,,0.04,0,Wunderground v.1.15,2013-01-08 03:37:00,
2013-01-07 19:47:00,47.6,42.1,30.00,SE,137,5.0,5.0,81,0.00,,,0.04,0,Wunderground v.1.15,2013-01-08 03:47:00,
2013-01-07 20:02:00,47.4,41.9,30.01,ESE,112,5.0,5.0,81,0.00,,,0.04,0,Wunderground v.1.15,2013-01-08 04:02:00,
2013-01-07 20:07:00,47.4,41.9,30.01,SE,141,4.0,5.0,81,0.00,,,0.04,0,Wunderground v.1.15,2013-01-08 04:07:00,
2013-01-07 20:17:00,47.3,41.4,30.02,SSE,168,4.0,11.0,80,0.00,,,0.04,0,Wunderground v.1.15,2013-01-08 04:17:00,
2013-01-07 20:27:00,47.3,41.4,30.02,SSE,147,4.0,5.0,80,0.00,,,0.04,0,Wunderground v.1.15,2013-01-08 04:27:00,
2013-01-07 20:37:00,47.1,41.2,30.03,ESE,113,3.0,4.0,80,0.00,,,0.04,0,Wunderground v.1.15,2013-01-08 04:37:00,
2013-01-07 20:48:00,47.1,41.2,30.04,SSE,164,3.0,4.0,80,0.00,,,0.04,0,Wunderground v.1.15,2013-01-08 04:48:00,
2013-01-07 20:58:00,47.0,40.8,30.04,SE,137,3.0,7.0,79,0.00,,,0.04,0,Wunderground v.1.15,2013-01-08 04:58:00,
2013-01-07 21:03:00,47.0,40.8,30.05,East,86,4.0,8.0,79,0.00,,,0.04,0,Wunderground v.1.15,2013-01-08 05:03:00,
2013-01-07 21:07:00,47.0,41.1,30.05,East,82,3.0,8.0,80,0.00,,,0.04,0,Wunderground v.1.15,2013-01-08 05:07:00,
2013-01-07 21:18:00,47.0,41.1,30.05,ENE,76,2.0,2.0,80,0.00,,,0.04,0,Wunderground v.1.15,2013-01-08 05:18:00,
2013-01-07 21:28:00,47.0,40.8,30.05,East,90,3.0,6.0,79,0.00,,,0.04,0,Wunderground v.1.15,2013-01-08 05:28:00,
2013-01-07 21:32:00,47.0,40.8,30.06,SE,140,3.0,3.0,79,0.00,,,0.04,0,Wunderground v.1.15,2013-01-08 05:32:00,
2013-01-07 21:38:00,47.0,40.8,30.06,SSE,151,4.0,4.0,79,0.00,,,0.04,0,Wunderground v.1.15,2013-01-08 05:38:00,
2013-01-07 21:42:00,47.0,40.8,30.06,SSE,152,3.0,3.0,79,0.00,,,0.04,0,Wunderground v.1.15,2013-01-08 05:42:00,
2013-01-07 21:48:00,47.0,40.8,30.06,SSE,151,3.0,3.0,79,0.00,,,0.04,0,Wunderground v.1.15,2013-01-08 05:48:00,
2013-01-07 21:58:00,47.0,40.8,30.06,SE,145,3.0,10.0,79,0.00,,,0.04,0,Wunderground v.1.15,2013-01-08 05:58:00,
2013-01-07 22:08:00,47.0,40.8,30.07,ESE,113,3.0,6.0,79,0.00,,,0.04,0,Wunderground v.1.15,2013-01-08 06:08:00,
2013-01-07 22:18:00,47.0,40.8,30.07,East,99,4.0,6.0,79,0.00,,,0.04,0,Wunderground v.1.15,2013-01-08 06:18:00,
2013-01-07 22:28:00,46.8,40.6,30.07,East,95,4.0,6.0,79,0.00,,,0.04,0,Wunderground v.1.15,2013-01-08 06:28:00,
2013-01-07 22:37:00,46.8,40.3,30.07,ESE,113,4.0,7.0,78,0.00,,,0.04,0,Wunderground v.1.15,2013-01-08 06:37:00,
2013-01-07 22:47:00,46.7,40.2,30.07,SSE,151,4.0,6.0,78,0.00,,,0.04,0,Wunderground v.1.15,2013-01-08 06:47:00,
2013-01-07 22:57:00,46.8,40.3,30.07,ESE,113,4.0,7.0,78,0.00,,,0.04,0,Wunderground v.1.15,2013-01-08 06:57:00,
2013-01-07 23:07:00,46.7,40.2,30.08,SE,145,3.0,7.0,78,0.00,,,0.04,0,Wunderground v.1.15,2013-01-08 07:07:00,
2013-01-07 23:17:00,46.7,40.2,30.09,ESE,113,4.0,5.0,78,0.00,,,0.04,0,Wunderground v.1.15,2013-01-08 07:17:00,
2013-01-07 23:27:00,46.5,40.0,30.09,SE,137,4.0,5.0,78,0.00,,,0.04,0,Wunderground v.1.15,2013-01-08 07:27:00,
2013-01-07 23:37:00,46.4,40.2,30.09,South,179,3.0,7.0,79,0.00,,,0.04,0,Wunderground v.1.15,2013-01-08 07:37:00,
2013-01-07 23:48:00,46.2,40.4,30.09,East,96,3.0,3.0,80,0.00,,,0.04,0,Wunderground v.1.15,2013-01-08 07:48:00,
2013-01-07 23:57:00,46.2,40.4,30.09,SE,136,4.0,6.0,80,0.00,,,0.04,0,Wunderground v.1.15,2013-01-08 07:57:00,